Wind_Speed
26 24 23 23 22 19 18 16 16 15 14 15 15 13 12 11 11 11 9 7 6 6 5 4 4 3 3 2 2 3 4 5 5 5 6 6 6 6 7 7 8 7
27 25 24 23 22 20 19 19 17 17 16 16 15 13 13 13 13 11 9 8 8 7 6 5 4 4 4 4 4 5 6 6 7 7 7 8 8 9 9 10 10 10
29 27 26 24 23 22 21 19 18 18 17 17 16 14 14 14 13 12 11 10 10 9 8 6 6 6 6 6 7 7 7 7 7 7 8 9 10 11 12 12 13 13
31 29 27 25 24 23 22 20 19 18 18 17 16 14 14 14 13 12 12 11 11 10 9 8 7 8 8 8 8 8 8 8 9 9 9 10 11 13 13 13 14 15
33 31 29 26 25 24 21 21 20 19 18 16 15 14 14 14 13 13 13 12 11 10 9 9 9 10 9 9 9 10 10 10 10 10 11 12 12 13 14 15 16 16
34 32 30 28 26 24 22 22 21 19 18 16 14 14 14 14 14 14 13 12 11 11 10 10 11 11 11 11 11 11 11 11 11 11 13 14 14 14 15 16 18 18
36 34 31 28 26 24 22 22 21 19 18 16 15 15 15 16 15 15 14 12 11 11 10 10 11 11 11 12 12 12 12 12 13 14 15 16 16 16 16 17 19 20
37 35 32 29 26 24 22 21 21 21 19 18 17 16 16 16 16 15 13 12 11 11 10 10 11 11 12 12 13 14 14 14 14 15 16 16 16 17 17 17 18 19
38 36 32 27 23 21 20 20 22 22 21 20 19 17 17 17 16 15 13 12 11 11 11 12 13 13 13 13 14 15 16 15 13 13 14 15 16 17 17 17 17 18
35 30 26 23 20 19 20 21 23 24 23 21 19 17 17 17 16 16 15 14 13 13 13 14 14 15 14 15 16 16 15 14 12 11 12 13 15 15 15 14 14 15
27 24 22 18 19 22 23 25 26 25 24 22 19 18 18 17 17 18 17 16 16 15 14 15 15 15 15 15 15 15 14 13 12 11 12 12 13 14 13 12 12 14
26 27 24 20 23 27 28 29 29 26 24 22 20 19 18 18 18 18 18 18 17 16 16 15 15 15 15 15 14 14 13 12 12 12 12 12 13 13 13 13 13 14
32 31 29 28 30 31 30 31 29 26 24 22 20 20 18 18 18 18 18 17 15 15 15 16 16 16 15 14 13 13 12 12 12 12 13 13 14 14 14 14 14 14
35 30 30 32 33 31 31 31 30 27 24 22 21 21 19 19 18 17 17 15 14 13 14 15 16 15 15 15 14 13 13 13 13 13 13 14 15 16 16 14 14 15
34 30 27 28 30 31 30 31 31 29 25 23 23 22 21 20 18 18 17 15 14 14 14 15 16 16 16 16 15 14 14 14 14 14 15 16 16 17 17 17 16 17
35 30 23 24 31 33 31 32 33 30 27 26 26 24 23 21 20 20 18 16 15 15 16 18 18 18 17 17 17 16 15 15 15 16 16 16 17 18 18 18 16 17
35 27 23 29 34 34 33 33 33 31 29 29 28 26 25 23 23 22 20 18 18 18 19 21 21 20 18 17 18 17 17 16 16 18 18 17 18 17 16 15 14 15
31 24 25 34 35 35 35 33 32 32 32 32 31 28 26 25 25 24 22 21 21 21 22 23 22 21 19 18 19 19 19 18 19 20 20 18 17 16 14 12 13 14
27 24 31 37 36 36 36 33 33 33 34 34 33 30 28 27 28 27 24 23 23 24 24 23 22 21 20 21 21 21 21 22 22 22 21 20 17 15 13 12 13 14
31 32 36 37 35 34 34 33 34 35 35 36 34 31 30 30 30 29 26 25 25 25 24 24 23 22 22 22 23 24 24 24 24 22 21 20 18 15 14 13 13 13
36 35 38 37 34 34 34 33 34 35 36 36 35 34 33 32 31 29 27 26 26 26 26 25 24 23 23 24 25 25 25 25 24 22 21 20 19 17 16 15 13 13
37 40 42 39 35 33 32 31 33 36 38 38 37 36 34 32 30 28 26 26 27 28 28 27 26 25 23 23 24 24 24 23 22 21 20 20 20 19 17 15 13 12
42 42 39 35 33 30 30 32 35 37 39 40 38 36 35 33 31 28 27 27 28 28 27 26 25 23 21 21 21 20 19 20 20 20 19 20 20 20 18 15 13 12
45 39 34 33 32 30 31 34 36 39 41 39 37 36 35 33 32 30 28 28 28 25 22 21 21 19 16 16 17 16 17 18 19 19 19 20 21 20 18 15 12 12
38 33 33 35 32 30 32 35 37 39 39 37 36 36 34 32 31 29 28 26 23 19 16 15 16 15 13 13 14 15 16 17 18 18 19 21 20 19 17 15 13 12
31 33 38 37 32 32 35 36 37 36 34 32 33 33 31 29 26 24 23 19 15 13 11 10 12 13 12 12 14 14 15 16 18 19 19 20 18 17 16 15 14 13
Wind_Direction
203 205 206 206 207 211 214 214 211 211 212 208 206 212 214 208 199 196 199 214 234 247 260 284 295 297 299 291 292 296 293 295 302 307 305 302 302 295 280 267 265 269
205 207 208 208 209 214 218 216 212 210 210 209 210 211 210 205 202 206 215 224 231 236 242 262 278 283 288 283 284 293 293 291 291 291 288 287 287 283 278 270 265 266
205 207 206 207 210 211 211 210 209 208 207 207 210 212 211 211 214 218 220 219 220 224 230 243 257 262 269 272 275 282 288 292 294 293 287 282 277 274 273 268 262 262
205 206 206 207 208 207 206 206 206 204 205 208 211 214 216 217 216 213 210 211 216 222 226 234 246 254 261 265 266 270 278 285 289 289 286 281 274 269 269 267 263 261
205 205 204 205 205 205 206 207 205 203 205 208 210 213 215 212 209 205 206 213 221 225 227 235 246 253 258 261 261 266 274 278 280 282 284 283 279 274 271 269 266 261
204 203 202 203 204 205 207 208 207 207 207 206 205 208 209 208 210 212 214 219 225 230 234 243 252 253 252 255 259 265 271 273 275 281 285 286 285 281 276 272 268 264
202 202 201 201 203 206 208 208 209 210 208 205 203 205 207 211 217 220 222 227 232 239 247 254 257 255 252 256 263 268 272 276 281 286 288 287 285 283 281 277 273 268
201 200 200 200 201 205 208 209 211 212 209 205 205 209 213 217 223 225 229 236 241 249 255 255 255 255 257 263 269 273 278 284 289 289 289 288 285 285 286 285 280 276
199 198 197 197 199 205 210 214 216 215 212 209 209 214 217 219 225 231 236 242 244 247 248 249 253 257 260 265 269 276 283 287 288 285 285 287 287 288 290 289 284 279
193 188 185 187 197 210 220 224 223 220 217 213 212 216 218 219 227 234 239 242 241 241 243 248 254 256 259 265 271 279 283 281 279 280 283 287 288 289 290 288 284 280
175 168 174 187 204 214 223 229 228 223 218 215 216 219 219 222 231 236 240 243 243 243 246 251 256 259 264 269 273 275 275 274 278 284 288 288 286 284 284 282 281 280
147 157 173 193 213 217 222 227 226 223 221 218 219 219 220 226 234 239 243 246 248 248 248 252 256 262 268 269 267 267 268 274 282 287 289 287 281 277 277 277 277 278
141 161 179 197 213 219 223 226 225 225 224 220 220 221 223 230 237 242 246 246 245 246 249 253 256 260 264 262 260 265 271 276 280 282 283 282 279 276 274 273 273 274
148 173 193 205 212 217 224 226 224 225 225 221 220 223 225 232 237 240 239 236 235 239 244 249 253 256 256 255 259 266 269 270 271 272 277 278 278 277 275 270 268 270
162 186 200 211 220 224 226 226 224 225 226 223 223 226 229 232 236 234 230 228 229 234 242 249 252 254 254 255 262 266 264 264 265 268 272 274 274 274 274 274 275 279
177 187 195 213 231 237 233 227 225 226 228 228 229 231 233 235 236 232 228 229 234 238 246 251 252 253 256 258 262 265 265 263 264 268 270 270 271 272 274 278 284 288
174 174 192 218 235 245 238 228 226 228 230 232 233 233 235 237 237 233 231 236 240 244 248 250 250 251 255 258 260 263 265 263 264 268 269 268 269 271 273 279 286 289
158 165 203 223 235 244 238 228 227 229 232 233 234 233 235 236 234 232 236 240 242 245 249 250 252 254 255 258 259 260 261 262 264 268 269 268 267 267 271 280 288 290
154 183 216 226 231 236 234 228 227 229 232 233 233 233 233 233 232 233 238 242 244 248 252 254 257 260 261 261 260 259 259 260 262 265 268 267 264 261 268 283 290 289
178 204 221 225 227 230 229 226 226 229 231 232 233 233 232 232 231 234 240 244 248 251 254 257 261 264 266 266 263 262 261 260 260 263 265 264 258 258 270 284 287 285
190 210 220 222 225 227 225 224 226 229 231 232 233 232 232 233 234 237 243 246 250 254 256 259 264 267 270 270 268 267 264 261 259 259 259 257 254 258 271 282 282 277
197 211 216 216 219 223 222 223 226 229 231 233 233 233 233 235 236 239 243 247 251 254 256 260 266 271 273 272 271 271 268 261 255 253 254 253 253 261 273 279 277 274
204 210 212 211 215 220 221 223 227 230 232 232 232 232 233 234 235 238 243 248 251 253 257 263 267 271 272 270 269 270 264 255 249 248 250 252 256 264 273 275 274 277
205 205 208 213 217 221 224 225 227 230 231 231 231 231 232 233 236 239 243 245 249 256 262 266 267 267 267 266 266 263 255 248 246 248 251 254 258 266 272 276 280 285
200 196 207 218 221 223 227 227 227 229 230 231 231 232 233 235 235 238 242 245 251 259 262 264 267 266 261 259 261 258 251 247 248 251 253 255 261 269 274 278 286 291
196 193 206 217 222 226 228 227 227 229 230 230 232 233 234 234 235 237 240 243 247 248 249 260 264 259 255 259 261 256 252 251 252 253 255 260 268 273 276 282 292 297
Height
799 800 802 804 805 807 809 810 811 813 814 815 817 818 819 820 821 822 822 822 823 824 825 826 826 826 826 826 826 826 826 826 825 825 825 825 825 824 824 824 823 823
796 797 799 801 803 805 806 808 809 810 812 814 815 817 818 819 820 820 821 821 822 823 824 824 825 825 826 825 825 825 825 825 824 824 824 823 823 823 822 822 821 821
793 794 796 798 800 802 804 806 807 808 810 812 813 815 817 818 819 819 820 820 821 822 823 823 824 824 825 825 824 824 824 824 823 823 823 822 822 821 821 820 820 819
789 791 793 795 798 800 802 804 806 807 809 810 812 814 815 817 818 818 819 819 820 821 821 822 823 823 824 824 824 823 823 823 822 822 821 820 820 819 819 818 818 817
786 788 790 793 796 799 801 803 805 806 807 809 810 812 814 815 817 817 818 818 818 819 820 821 822 822 823 823 822 822 822 821 821 820 820 819 818 818 817 817 816 815
783 786 788 792 795 798 800 802 804 805 806 808 809 811 813 814 815 816 816 817 817 817 818 819 820 821 821 821 821 821 821 820 820 819 818 818 817 816 816 815 814 813
781 784 787 791 794 797 800 801 803 804 805 806 807 809 811 812 814 814 815 815 815 815 816 817 818 819 819 820 820 819 819 818 818 817 817 816 816 815 814 814 813 812
779 783 787 791 794 797 799 801 802 803 803 804 805 807 809 810 811 812 813 813 813 813 814 815 816 817 817 818 818 817 816 816 815 815 815 814 814 813 813 812 811 810
778 783 788 793 797 800 802 803 803 802 802 802 803 805 806 808 809 810 811 811 811 811 812 812 813 814 815 815 815 815 814 813 813 813 812 812 812 811 811 810 809 809
778 785 791 796 800 803 804 803 802 801 801 800 801 802 803 805 807 808 808 809 809 809 809 810 811 812 812 812 812 812 811 810 810 810 810 810 809 809 809 808 808 807
780 787 795 797 797 798 799 799 800 799 799 798 799 800 801 802 804 805 806 806 806 806 807 808 809 809 809 809 809 809 808 808 807 807 807 807 807 807 807 807 806 805
781 788 794 794 791 791 792 794 797 797 797 796 796 797 798 800 801 803 803 803 803 804 804 805 806 807 807 806 807 806 805 805 805 805 805 805 805 805 805 804 804 803
780 786 788 786 785 787 790 792 794 795 794 794 794 794 795 797 799 800 800 800 800 801 802 803 804 804 804 804 804 803 803 802 802 802 802 802 802 802 802 802 801 801
779 783 783 783 783 785 788 790 791 792 792 792 792 792 793 794 796 797 797 797 798 798 799 800 801 802 802 802 802 801 801 800 800 800 800 800 800 800 800 800 799 799
778 779 782 787 788 786 786 787 788 790 790 791 791 791 791 792 793 794 794 794 795 796 797 798 799 800 800 800 800 799 798 798 798 798 798 798 798 798 798 798 797 797
771 775 783 789 789 787 785 785 786 788 789 789 790 790 790 791 792 792 792 792 793 794 795 796 796 797 797 797 797 796 796 796 795 795 795 796 795 795 795 795 795 795
763 772 782 785 785 786 785 783 784 786 787 788 788 788 789 789 790 790 789 790 790 791 792 792 793 793 794 794 794 794 794 793 793 793 793 793 793 793 793 793 793 792
766 776 781 780 780 782 782 780 781 783 784 786 786 786 787 787 788 788 787 787 788 788 789 789 789 790 790 791 791 791 791 791 791 791 791 791 791 791 791 791 790 790
768 773 773 771 772 775 777 777 777 779 781 782 783 783 784 784 785 784 784 785 785 785 786 786 786 787 788 788 788 788 789 789 789 789 789 789 789 789 789 789 788 787
762 764 764 763 765 770 772 772 772 774 776 778 779 780 780 781 781 781 781 782 782 782 783 783 784 785 785 785 785 785 786 786 786 787 787 787 787 787 787 786 786 785
754 759 759 759 762 766 767 767 768 770 772 774 775 776 776 777 778 778 778 779 779 779 780 781 781 782 783 783 783 783 783 784 784 784 784 785 785 785 785 784 783 783
748 751 751 753 757 762 763 763 764 765 767 769 771 772 773 774 775 775 775 775 776 776 777 778 779 780 780 780 780 780 781 781 781 782 782 783 783 783 783 782 781 781
741 743 747 750 754 757 757 757 759 761 763 765 768 769 770 771 771 772 772 772 773 774 775 776 777 778 778 778 778 778 778 778 779 780 780 781 781 781 780 780 779 779
735 740 747 748 749 750 751 752 754 757 759 762 764 766 766 767 768 768 769 769 770 772 773 773 775 775 776 776 776 776 776 776 777 778 779 779 779 779 778 778 777 777
736 742 747 746 744 745 746 748 751 753 756 759 761 762 763 764 765 765 766 767 768 769 771 772 773 774 774 774 774 774 774 775 776 776 777 777 777 777 776 776 776 775
736 740 742 740 741 743 743 745 749 752 755 757 758 759 760 761 762 763 764 765 766 767 768 770 772 772 772 772 772 773 773 773 774 775 775 775 775 775 774 774 774 773